Вернуться в каталог

ATS 5 AKM

АктивенMEO
NORAD 21052·ROCKET BODY·🇺🇸 United States

Запущен Aug 12, 1969 с Cape Canaveral Space Force Station

Loading…

Ближайшие Пролёты (ближайшие 24 часа)

TLE

СвежийSource: Space-Track

Эпоха: Sep 14, 2026, 22:16 UTC

1 21052U 69069C   26257.92798076 -.00000300  00000-0  00000-0 0  9994
2 21052   0.3514 271.4092 0131373 312.4840  84.7941  0.98183378 47269

Отслеживайте ATS 5 AKM в реальном времени с AllMySat

Download on the App Store